EW5254 Weather Reports


Display with metric or nautical units.
time (UTC)temp
F
wind
direction
speed
MPH
gust
MPH
rain 1hr
in
rain 24hr
in
rain mn
in
humidity
%
barometer
mb
20260505054524 70 269 3.0 7.0 0.00 0.00 0.00 25 998.7
20260505053022 70 251 4.0 7.0 0.00 0.00 0.00 25 998.9
20260505051523 70 265 3.0 6.0 0.00 0.00 0.00 25 999.2
20260505041531 72 290 2.0 5.0 0.00 0.00 0.00 23 999.1
20260505040015 72 290 2.0 4.0 0.00 0.00 0.00 23 999.2
20260505034514 72 290 1.0 4.0 0.00 0.00 0.00 23 999.2
20260505033014 72 290 1.0 3.0 0.00 0.00 0.00 23 999.0
20260505031516 72 290 1.0 4.0 0.00 0.00 0.00 23 998.8
20260505030012 72 290 1.0 3.0 0.00 0.00 0.00 23 999.0
20260505024512 73 290 1.0 4.0 0.00 0.00 0.00 22 998.8
20260505023012 74 306 3.0 8.0 0.00 0.00 0.00 21 998.7
20260505021511 74 314 3.0 7.0 0.00 0.00 0.00 21 998.9
20260505020016 75 312 3.0 5.0 0.00 0.00 0.00 20 998.7
20260505014512 76 312 2.0 6.0 0.00 0.00 0.00 19 998.5
20260505013013 77 300 4.0 8.0 0.00 0.00 0.00 19 998.5
20260505011511 78 298 5.0 10.0 0.00 0.00 0.00 19 998.5
20260505010007 78 262 7.0 14.0 0.00 0.00 0.00 19 998.7
20260505004507 79 292 9.0 14.0 0.00 0.00 0.00 19 998.6
20260505003006 80 284 9.0 15.0 0.00 0.00 0.00 19 998.8
20260505001506 81 255 11.0 18.0 0.00 0.00 0.00 19 998.7
20260505000005 81 256 7.0 14.0 0.00 0.00 0.00 21 998.7
20260504234504 81 283 7.0 14.0 0.00 0.00 0.00 21 998.6
20260504233003 81 290 8.0 15.0 0.00 0.00 0.00 21 998.9
20260504231501 81 328 8.0 15.0 0.00 0.00 0.00 21 999.0
20260504230104 81 261 13.0 24.0 0.00 0.00 0.00 20 999.0
20260504224609 83 296 12.0 22.0 0.00 0.00 0.00 18 999.0
20260504223054 82 255 6.0 18.0 0.00 0.00 0.00 19 999.1
20260504221551 83 300 8.0 15.0 0.00 0.00 0.00 20 999.0
20260504220152 82 290 3.0 18.0 0.00 0.00 0.00 22 999.2
20260504214548 83 273 5.0 17.0 0.00 0.00 0.00 22 999.3
20260504213104 84 314 8.0 15.0 0.00 0.00 0.00 22 999.5
20260504211543 82 286 11.0 18.0 0.00 0.00 0.00 22 999.8
20260504210040 83 340 9.0 16.0 0.00 0.00 0.00 22 1000.1
20260504204537 82 287 10.0 13.0 0.00 0.00 0.00 22 1000.4
20260504203037 82 284 10.0 15.0 0.00 0.00 0.00 21 1000.5
20260504201536 82 242 10.0 17.0 0.00 0.00 0.00 22 1000.8
20260504200032 82 259 9.0 13.0 0.00 0.00 0.00 21 1001.1
20260504194530 81 322 8.0 16.0 0.00 0.00 0.00 23 1001.3
20260504193032 82 223 9.0 14.0 0.00 0.00 0.00 23 1001.3
20260504191527 81 251 7.0 15.0 0.00 0.00 0.00 24 1001.5
20260504190026 82 300 7.0 13.0 0.00 0.00 0.00 24 1001.6
20260504184522 81 271 5.0 12.0 0.00 0.00 0.00 24 1001.9
20260504183023 81 204 9.0 15.0 0.00 0.00 0.00 24 1002.1
20260504181519 80 261 5.0 12.0 0.00 0.00 0.00 24 1002.3
20260504180019 80 278 5.0 9.0 0.00 0.00 0.00 23 1002.6
20260504174518 80 257 4.0 12.0 0.00 0.00 0.00 23 1002.9
20260504173025 78 290 5.0 11.0 0.00 0.00 0.00 24 1003.1
20260504171518 78 328 6.0 11.0 0.00 0.00 0.00 24 1003.0
20260504081511 62 178 15.0 24.0 0.00 0.00 0.00 55 1003.2